Time,TemperatureF,DewpointF,PressureIn,WindDirection,WindDirectionDegrees,WindSpeedMPH,WindSpeedGustMPH,Humidity,HourlyPrecipIn,Conditions,Clouds,dailyrainin,SoftwareType,DateUTC
2013-03-20 00:01:00,30.3,25.0,29.94,SE,138,2.0,2.0,82,0.00,,,0.00,weatherlink.com 1.10,2013-03-20 06:01:00,
2013-03-20 00:16:00,29.6,25.0,29.93,SSE,150,0.0,4.0,84,0.00,,,0.00,weatherlink.com 1.10,2013-03-20 06:16:00,
2013-03-20 00:31:00,29.4,25.0,29.93,SSE,150,0.0,0.0,84,0.00,,,0.00,weatherlink.com 1.10,2013-03-20 06:31:00,
2013-03-20 00:46:00,30.8,25.0,29.92,SSE,157,2.0,5.0,80,0.00,,,0.00,weatherlink.com 1.10,2013-03-20 06:46:00,
2013-03-20 01:02:00,30.5,25.0,29.91,WNW,298,1.0,2.0,80,0.00,,,0.00,weatherlink.com 1.10,2013-03-20 07:02:00,
2013-03-20 01:16:00,30.0,25.0,29.91,WNW,298,0.0,0.0,81,0.00,,,0.00,weatherlink.com 1.10,2013-03-20 07:16:00,
2013-03-20 01:32:00,29.2,25.0,29.90,WNW,298,0.0,1.0,83,0.00,,,0.00,weatherlink.com 1.10,2013-03-20 07:32:00,
2013-03-20 01:47:00,28.8,25.0,29.89,WNW,298,0.0,0.0,84,0.00,,,0.00,weatherlink.com 1.10,2013-03-20 07:47:00,
2013-03-20 02:02:00,28.5,25.0,29.88,WNW,298,0.0,0.0,85,0.00,,,0.00,weatherlink.com 1.10,2013-03-20 08:02:00,
2013-03-20 02:17:00,28.2,25.0,29.87,WNW,298,0.0,0.0,87,0.00,,,0.00,weatherlink.com 1.10,2013-03-20 08:17:00,
2013-03-20 02:32:00,28.0,25.0,29.86,West,269,0.0,0.0,88,0.00,,,0.00,weatherlink.com 1.10,2013-03-20 08:32:00,
2013-03-20 02:47:00,28.1,25.0,29.85,West,269,0.0,0.0,88,0.00,,,0.00,weatherlink.com 1.10,2013-03-20 08:47:00,
2013-03-20 03:02:00,28.3,26.0,29.85,West,269,0.0,0.0,90,0.00,,,0.00,weatherlink.com 1.10,2013-03-20 09:02:00,
2013-03-20 03:17:00,28.6,26.0,29.84,West,269,0.0,0.0,88,0.00,,,0.00,weatherlink.com 1.10,2013-03-20 09:17:00,
2013-03-20 03:32:00,28.8,26.0,29.83,West,269,0.0,1.0,88,0.00,,,0.00,weatherlink.com 1.10,2013-03-20 09:32:00,
2013-03-20 03:47:00,28.6,26.0,29.82,West,269,0.0,0.0,89,0.00,,,0.00,weatherlink.com 1.10,2013-03-20 09:47:00,
2013-03-20 04:02:00,28.5,26.0,29.81,West,269,0.0,0.0,89,0.00,,,0.00,weatherlink.com 1.10,2013-03-20 10:02:00,
2013-03-20 04:17:00,28.8,26.0,29.81,SSE,163,0.0,2.0,90,0.00,,,0.00,weatherlink.com 1.10,2013-03-20 10:17:00,
2013-03-20 04:32:00,28.9,26.0,29.79,SSE,163,0.0,1.0,89,0.00,,,0.00,weatherlink.com 1.10,2013-03-20 10:32:00,
2013-03-20 04:47:00,28.8,26.0,29.78,SSE,163,0.0,0.0,90,0.00,,,0.00,weatherlink.com 1.10,2013-03-20 10:47:00,
2013-03-20 05:02:00,28.9,26.0,29.77,SSE,163,0.0,0.0,90,0.00,,,0.00,weatherlink.com 1.10,2013-03-20 11:02:00,
2013-03-20 05:17:00,28.8,26.0,29.77,SSE,163,0.0,0.0,89,0.00,,,0.00,weatherlink.com 1.10,2013-03-20 11:17:00,
2013-03-20 05:32:00,29.0,27.0,29.76,ESE,113,0.0,2.0,90,0.00,,,0.00,weatherlink.com 1.10,2013-03-20 11:32:00,
2013-03-20 05:47:00,28.9,26.0,29.75,ESE,113,0.0,1.0,90,0.00,,,0.00,weatherlink.com 1.10,2013-03-20 11:47:00,
2013-03-20 06:02:00,29.0,27.0,29.75,ESE,113,0.0,2.0,90,0.00,,,0.00,weatherlink.com 1.10,2013-03-20 12:02:00,
2013-03-20 06:17:00,29.0,27.0,29.75,ESE,112,0.0,3.0,90,0.00,,,0.00,weatherlink.com 1.10,2013-03-20 12:17:00,
2013-03-20 06:32:00,29.0,27.0,29.75,North,5,2.0,3.0,90,0.00,,,0.00,weatherlink.com 1.10,2013-03-20 12:32:00,
2013-03-20 06:47:00,29.0,27.0,29.74,North,5,0.0,3.0,90,0.00,,,0.00,weatherlink.com 1.10,2013-03-20 12:47:00,
2013-03-20 07:02:00,29.3,27.0,29.75,ENE,72,0.0,3.0,89,0.00,,,0.00,weatherlink.com 1.10,2013-03-20 13:02:00,
2013-03-20 07:17:00,29.6,27.0,29.74,ENE,72,0.0,2.0,89,0.00,,,0.00,weatherlink.com 1.10,2013-03-20 13:17:00,
2013-03-20 07:32:00,29.7,27.0,29.75,ENE,72,0.0,0.0,90,0.00,,,0.00,weatherlink.com 1.10,2013-03-20 13:32:00,
2013-03-20 07:47:00,29.8,27.0,29.74,ENE,72,0.0,0.0,89,0.00,,,0.00,weatherlink.com 1.10,2013-03-20 13:47:00,
2013-03-20 08:02:00,29.8,27.0,29.74,SSE,155,0.0,2.0,88,0.00,,,0.00,weatherlink.com 1.10,2013-03-20 14:02:00,
2013-03-20 08:17:00,30.0,27.0,29.74,SSE,155,0.0,0.0,88,0.00,,,0.00,weatherlink.com 1.10,2013-03-20 14:17:00,
2013-03-20 08:33:00,30.1,27.0,29.74,South,180,0.0,3.0,87,0.00,,,0.00,weatherlink.com 1.10,2013-03-20 14:33:00,
2013-03-20 08:47:00,30.5,27.0,29.73,NW,309,0.0,2.0,86,0.00,,,0.00,weatherlink.com 1.10,2013-03-20 14:47:00,
2013-03-20 09:02:00,31.1,27.0,29.73,SSW,203,0.0,4.0,85,0.00,,,0.00,weatherlink.com 1.10,2013-03-20 15:02:00,
2013-03-20 09:18:00,32.7,28.0,29.72,West,267,3.0,10.0,84,0.00,,,0.00,weatherlink.com 1.10,2013-03-20 15:18:00,
2013-03-20 09:33:00,34.8,30.0,29.72,South,183,7.0,9.0,84,0.00,,,0.00,weatherlink.com 1.10,2013-03-20 15:33:00,
2013-03-20 09:48:00,41.2,34.0,29.71,SSE,163,13.0,16.0,74,0.00,,,0.00,weatherlink.com 1.10,2013-03-20 15:48:00,
2013-03-20 10:03:00,41.7,34.0,29.70,SE,132,15.0,20.0,73,0.00,,,0.00,weatherlink.com 1.10,2013-03-20 16:03:00,
2013-03-20 10:18:00,42.9,34.0,29.70,SE,128,17.0,20.0,71,0.00,,,0.00,weatherlink.com 1.10,2013-03-20 16:18:00,
2013-03-20 10:33:00,43.6,34.0,29.69,SE,132,14.0,20.0,69,0.00,,,0.00,weatherlink.com 1.10,2013-03-20 16:33:00,
2013-03-20 10:48:00,43.9,34.0,29.69,SE,141,10.0,18.0,69,0.00,,,0.00,weatherlink.com 1.10,2013-03-20 16:48:00,
2013-03-20 11:03:00,44.5,35.0,29.69,SE,144,10.0,18.0,69,0.00,,,0.00,weatherlink.com 1.10,2013-03-20 17:03:00,
2013-03-20 11:33:00,43.4,36.0,29.68,SE,138,15.0,21.0,75,0.02,,,0.02,weatherlink.com 1.10,2013-03-20 17:33:00,
2013-03-20 11:48:00,44.0,37.0,29.68,SE,140,9.0,16.0,77,0.02,,,0.02,weatherlink.com 1.10,2013-03-20 17:48:00,
2013-03-20 12:03:00,45.3,37.0,29.67,SSE,160,13.0,21.0,73,0.03,,,0.03,weatherlink.com 1.10,2013-03-20 18:03:00,
2013-03-20 12:18:00,47.5,37.0,29.66,South,188,10.0,16.0,66,0.03,,,0.03,weatherlink.com 1.10,2013-03-20 18:18:00,
2013-03-20 12:48:00,47.8,38.0,29.64,SSE,168,7.0,16.0,70,0.00,,,0.03,weatherlink.com 1.10,2013-03-20 18:48:00,
2013-03-20 13:03:00,49.2,39.0,29.62,ESE,119,10.0,17.0,67,0.00,,,0.03,weatherlink.com 1.10,2013-03-20 19:03:00,
2013-03-20 13:18:00,50.4,39.0,29.61,South,180,7.0,23.0,64,0.00,,,0.03,weatherlink.com 1.10,2013-03-20 19:18:00,
2013-03-20 13:33:00,51.5,38.0,29.61,SSE,148,11.0,17.0,60,0.00,,,0.03,weatherlink.com 1.10,2013-03-20 19:33:00,
2013-03-20 13:49:00,51.6,38.0,29.59,South,181,11.0,16.0,61,0.00,,,0.03,weatherlink.com 1.10,2013-03-20 19:49:00,
2013-03-20 14:04:00,52.5,40.0,29.58,South,181,6.0,11.0,62,0.00,,,0.03,weatherlink.com 1.10,2013-03-20 20:04:00,
2013-03-20 14:19:00,52.9,40.0,29.56,SSW,212,9.0,12.0,61,0.00,,,0.03,weatherlink.com 1.10,2013-03-20 20:19:00,
2013-03-20 14:34:00,53.9,39.0,29.55,South,188,7.0,13.0,58,0.00,,,0.03,weatherlink.com 1.10,2013-03-20 20:34:00,
2013-03-20 14:49:00,54.4,39.0,29.54,SSW,192,7.0,15.0,57,0.00,,,0.03,weatherlink.com 1.10,2013-03-20 20:49:00,
2013-03-20 15:04:00,54.5,39.0,29.53,SE,144,10.0,10.0,57,0.00,,,0.03,weatherlink.com 1.10,2013-03-20 21:04:00,
2013-03-20 15:19:00,54.5,39.0,29.52,South,181,6.0,13.0,57,0.00,,,0.03,weatherlink.com 1.10,2013-03-20 21:19:00,
2013-03-20 15:34:00,52.7,39.0,29.51,SSE,158,3.0,19.0,60,0.00,,,0.03,weatherlink.com 1.10,2013-03-20 21:34:00,
2013-03-20 15:49:00,51.8,41.0,29.51,SSW,209,4.0,16.0,67,0.01,,,0.04,weatherlink.com 1.10,2013-03-20 21:49:00,
2013-03-20 16:04:00,52.9,39.0,29.48,SE,143,6.0,13.0,60,0.01,,,0.04,weatherlink.com 1.10,2013-03-20 22:04:00,
2013-03-20 16:19:00,55.0,40.0,29.47,SE,137,10.0,14.0,57,0.01,,,0.04,weatherlink.com 1.10,2013-03-20 22:19:00,
2013-03-20 16:34:00,56.8,39.0,29.45,South,186,12.0,15.0,52,0.01,,,0.04,weatherlink.com 1.10,2013-03-20 22:34:00,
2013-03-20 16:49:00,58.0,39.0,29.43,SSE,165,9.0,18.0,50,0.00,,,0.04,weatherlink.com 1.10,2013-03-20 22:49:00,
2013-03-20 17:04:00,58.2,38.0,29.42,South,182,6.0,19.0,47,0.00,,,0.04,weatherlink.com 1.10,2013-03-20 23:04:00,
2013-03-20 17:19:00,58.1,35.0,29.42,South,182,4.0,16.0,43,0.00,,,0.04,weatherlink.com 1.10,2013-03-20 23:19:00,
2013-03-20 17:34:00,57.3,35.0,29.41,SSE,165,7.0,19.0,43,0.00,,,0.04,weatherlink.com 1.10,2013-03-20 23:34:00,
2013-03-20 17:49:00,57.1,35.0,29.41,South,183,5.0,16.0,44,0.00,,,0.04,weatherlink.com 1.10,2013-03-20 23:49:00,
2013-03-20 18:04:00,49.6,36.0,29.45,NW,311,13.0,33.0,60,0.00,,,0.04,weatherlink.com 1.10,2013-03-21 00:04:00,
2013-03-20 18:19:00,42.0,37.0,29.50,WSW,248,6.0,25.0,82,0.03,,,0.07,weatherlink.com 1.10,2013-03-21 00:19:00,
2013-03-20 18:34:00,42.3,35.0,29.53,WNW,297,17.0,41.0,76,0.06,,,0.10,weatherlink.com 1.10,2013-03-21 00:34:00,
2013-03-20 18:49:00,41.6,34.0,29.52,West,273,7.0,38.0,75,0.08,,,0.12,weatherlink.com 1.10,2013-03-21 00:49:00,
2013-03-20 19:04:00,41.5,34.0,29.55,North,351,9.0,36.0,74,0.08,,,0.12,weatherlink.com 1.10,2013-03-21 01:04:00,
2013-03-20 19:19:00,41.1,33.0,29.56,NNE,17,17.0,43.0,74,0.05,,,0.12,weatherlink.com 1.10,2013-03-21 01:19:00,
2013-03-20 19:34:00,39.4,33.0,29.59,NNW,338,22.0,35.0,79,0.02,,,0.12,weatherlink.com 1.10,2013-03-21 01:34:00,
2013-03-20 19:49:00,36.9,32.0,29.61,North,355,15.0,30.0,83,0.02,,,0.14,weatherlink.com 1.10,2013-03-21 01:49:00,
2013-03-20 20:04:00,37.3,33.0,29.61,NNW,344,14.0,20.0,83,0.03,,,0.15,weatherlink.com 1.10,2013-03-21 02:04:00,
2013-03-20 20:19:00,39.0,32.0,29.62,North,350,2.0,30.0,75,0.03,,,0.15,weatherlink.com 1.10,2013-03-21 02:19:00,
2013-03-20 20:34:00,38.7,31.0,29.61,West,273,4.0,11.0,75,0.03,,,0.15,weatherlink.com 1.10,2013-03-21 02:34:00,
2013-03-20 20:49:00,37.7,32.0,29.63,WSW,237,0.0,6.0,81,0.01,,,0.15,weatherlink.com 1.10,2013-03-21 02:49:00,
2013-03-20 21:04:00,37.1,32.0,29.63,SE,130,6.0,6.0,82,0.00,,,0.15,weatherlink.com 1.10,2013-03-21 03:04:00,
2013-03-20 21:19:00,35.8,32.0,29.62,WSW,238,0.0,4.0,86,0.00,,,0.15,weatherlink.com 1.10,2013-03-21 03:19:00,
2013-03-20 21:34:00,36.1,32.0,29.63,ESE,117,5.0,9.0,84,0.00,,,0.15,weatherlink.com 1.10,2013-03-21 03:34:00,
2013-03-20 21:49:00,36.1,32.0,29.64,ENE,71,5.0,7.0,84,0.00,,,0.15,weatherlink.com 1.10,2013-03-21 03:49:00,
2013-03-20 22:04:00,37.4,32.0,29.64,SW,217,4.0,9.0,82,0.00,,,0.15,weatherlink.com 1.10,2013-03-21 04:04:00,
2013-03-20 22:19:00,36.8,32.0,29.64,South,173,1.0,6.0,84,0.00,,,0.15,weatherlink.com 1.10,2013-03-21 04:19:00,
2013-03-20 22:34:00,36.1,32.0,29.64,ENE,63,2.0,3.0,86,0.00,,,0.15,weatherlink.com 1.10,2013-03-21 04:34:00,
2013-03-20 22:49:00,36.2,32.0,29.65,East,80,0.0,2.0,85,0.00,,,0.15,weatherlink.com 1.10,2013-03-21 04:49:00,
2013-03-20 23:04:00,35.9,31.0,29.65,SE,126,2.0,8.0,82,0.00,,,0.15,weatherlink.com 1.10,2013-03-21 05:04:00,
2013-03-20 23:19:00,35.4,31.0,29.66,SW,225,1.0,6.0,85,0.00,,,0.15,weatherlink.com 1.10,2013-03-21 05:19:00,
2013-03-20 23:34:00,34.7,31.0,29.66,East,90,2.0,5.0,87,0.00,,,0.15,weatherlink.com 1.10,2013-03-21 05:34:00,
2013-03-20 23:49:00,35.6,31.0,29.66,ESE,113,5.0,8.0,82,0.00,,,0.15,weatherlink.com 1.10,2013-03-21 05:49:00,